TimeEST,TemperatureF,Dew PointF,Humidity,Sea Level PressureIn,VisibilityMPH,Wind Direction,Wind SpeedMPH,Gust SpeedMPH,PrecipitationIn,Events,Conditions,WindDirDegrees,DateUTC
12:15 AM,40.3,39.2,96,30.39,7.0,Calm,Calm,-,N/A,,Scattered Clouds,0,2012-11-30 05:15:00
12:35 AM,41.0,39.7,95,30.39,7.0,Calm,Calm,-,N/A,,Mostly Cloudy,0,2012-11-30 05:35:00
12:55 AM,41.0,39.6,95,30.39,7.0,Calm,Calm,-,N/A,,Mostly Cloudy,0,2012-11-30 05:55:00
1:15 AM,40.3,38.8,95,30.39,7.0,Calm,Calm,-,N/A,,Mostly Cloudy,0,2012-11-30 06:15:00
1:35 AM,40.6,39.2,95,30.38,7.0,Calm,Calm,-,N/A,,Mostly Cloudy,0,2012-11-30 06:35:00
1:55 AM,41.2,40.1,96,30.38,5.0,Calm,Calm,-,N/A,,Scattered Clouds,0,2012-11-30 06:55:00
2:15 AM,39.9,38.5,95,30.38,2.0,Calm,Calm,-,N/A,,Clear,0,2012-11-30 07:15:00
2:35 AM,39.4,38.3,96,30.38,4.0,Calm,Calm,-,N/A,,Clear,0,2012-11-30 07:35:00
2:55 AM,38.5,37.4,96,30.37,1.5,Calm,Calm,-,N/A,,Mist,0,2012-11-30 07:55:00
3:15 AM,39.2,38.1,96,30.37,2.5,Calm,Calm,-,N/A,,Clear,0,2012-11-30 08:15:00
3:35 AM,38.3,37.2,96,30.37,3.0,Calm,Calm,-,N/A,,Clear,0,2012-11-30 08:35:00
3:55 AM,37.9,36.9,96,30.37,3.0,Calm,Calm,-,N/A,,Clear,0,2012-11-30 08:55:00
4:15 AM,38.3,37.4,97,30.37,4.0,Calm,Calm,-,N/A,,Clear,0,2012-11-30 09:15:00
4:35 AM,37.6,36.7,97,30.37,5.0,Calm,Calm,-,N/A,,Clear,0,2012-11-30 09:35:00
4:55 AM,38.3,37.2,96,30.37,4.0,Calm,Calm,-,N/A,,Clear,0,2012-11-30 09:55:00
5:15 AM,37.6,36.5,96,30.36,4.0,Calm,Calm,-,N/A,,Clear,0,2012-11-30 10:15:00
5:35 AM,36.9,36.0,97,30.37,3.0,Calm,Calm,-,N/A,,Clear,0,2012-11-30 10:35:00
5:55 AM,36.5,35.6,97,30.37,4.0,Calm,Calm,-,N/A,,Clear,0,2012-11-30 10:55:00
6:15 AM,36.7,35.8,97,30.38,5.0,Calm,Calm,-,N/A,,Clear,0,2012-11-30 11:15:00
6:35 AM,36.9,35.8,96,30.38,4.0,Calm,Calm,-,N/A,,Clear,0,2012-11-30 11:35:00
6:55 AM,37.4,36.3,96,30.39,5.0,Calm,Calm,-,N/A,,Clear,0,2012-11-30 11:55:00
7:15 AM,37.2,36.1,96,30.39,5.0,Calm,Calm,-,N/A,,Scattered Clouds,0,2012-11-30 12:15:00
7:35 AM,36.7,35.6,96,30.39,5.0,Calm,Calm,-,N/A,,Scattered Clouds,0,2012-11-30 12:35:00
7:55 AM,37.8,36.7,96,30.40,5.0,Calm,Calm,-,N/A,,Scattered Clouds,0,2012-11-30 12:55:00
8:15 AM,41.0,39.6,95,30.40,5.0,Calm,Calm,-,N/A,,Mostly Cloudy,0,2012-11-30 13:15:00
8:35 AM,42.6,40.6,93,30.40,10.0,Calm,Calm,-,N/A,,Mostly Cloudy,0,2012-11-30 13:35:00
8:55 AM,45.3,42.8,91,30.40,10.0,Calm,Calm,-,N/A,,Scattered Clouds,0,2012-11-30 13:55:00
9:15 AM,48.2,44.8,88,30.41,10.0,Calm,Calm,-,N/A,,Scattered Clouds,0,2012-11-30 14:15:00
9:35 AM,53.2,46.6,78,30.41,10.0,ENE,5.8,-,N/A,,Scattered Clouds,70,2012-11-30 14:35:00
9:55 AM,56.7,46.4,69,30.41,10.0,East,3.5,-,N/A,,Scattered Clouds,90,2012-11-30 14:55:00
10:15 AM,59.7,47.5,64,30.40,10.0,SE,5.8,-,N/A,,Clear,130,2012-11-30 15:15:00
10:35 AM,60.3,47.8,64,30.40,10.0,East,3.5,-,N/A,,Clear,90,2012-11-30 15:35:00
10:55 AM,60.4,47.8,63,30.40,10.0,East,3.5,-,N/A,,Scattered Clouds,100,2012-11-30 15:55:00
11:15 AM,62.1,48.6,61,30.39,10.0,Calm,Calm,-,N/A,,Mostly Cloudy,0,2012-11-30 16:15:00
11:35 AM,63.7,49.3,59,30.38,10.0,ENE,3.5,-,N/A,,Mostly Cloudy,60,2012-11-30 16:35:00
11:55 AM,66.0,49.8,56,30.37,10.0,Calm,Calm,-,N/A,,Scattered Clouds,0,2012-11-30 16:55:00
12:15 PM,67.3,50.2,54,30.36,10.0,Calm,Calm,-,N/A,,Clear,0,2012-11-30 17:15:00
12:35 PM,69.8,50.4,50,30.35,10.0,Calm,Calm,-,N/A,,Clear,0,2012-11-30 17:35:00
12:55 PM,70.5,51.1,50,30.33,10.0,East,4.6,-,N/A,,Clear,80,2012-11-30 17:55:00
1:15 PM,71.1,50.5,48,30.32,10.0,East,3.5,-,N/A,,Clear,100,2012-11-30 18:15:00
1:35 PM,72.0,50.2,46,30.31,10.0,SE,3.5,-,N/A,,Clear,130,2012-11-30 18:35:00
1:55 PM,73.2,48.9,42,30.30,10.0,SE,4.6,-,N/A,,Scattered Clouds,140,2012-11-30 18:55:00
2:15 PM,73.4,48.2,41,30.29,10.0,Calm,Calm,-,N/A,,Scattered Clouds,0,2012-11-30 19:15:00
2:35 PM,71.6,48.7,44,30.29,10.0,SSE,4.6,-,N/A,,Scattered Clouds,160,2012-11-30 19:35:00
2:55 PM,71.1,48.9,45,30.29,10.0,Calm,Calm,-,N/A,,Scattered Clouds,0,2012-11-30 19:55:00
3:15 PM,71.6,47.7,43,30.29,10.0,SE,4.6,-,N/A,,Mostly Cloudy,140,2012-11-30 20:15:00
3:35 PM,71.8,48.0,43,30.29,10.0,SSE,4.6,-,N/A,,Mostly Cloudy,150,2012-11-30 20:35:00
3:55 PM,72.5,46.8,40,30.29,10.0,ESE,4.6,-,N/A,,Mostly Cloudy,110,2012-11-30 20:55:00
4:15 PM,71.4,47.7,43,30.29,10.0,Calm,Calm,-,N/A,,Scattered Clouds,0,2012-11-30 21:15:00
4:35 PM,70.9,47.3,43,30.29,10.0,Calm,Calm,-,N/A,,Clear,0,2012-11-30 21:35:00
4:55 PM,70.0,48.2,46,30.29,10.0,Calm,Calm,-,N/A,,Clear,0,2012-11-30 21:55:00
5:15 PM,66.6,49.6,54,30.29,10.0,Calm,Calm,-,N/A,,Mostly Cloudy,0,2012-11-30 22:15:00
5:35 PM,65.7,50.0,57,30.29,10.0,Calm,Calm,-,N/A,,Overcast,0,2012-11-30 22:35:00
5:55 PM,63.3,51.8,66,30.29,10.0,Calm,Calm,-,N/A,,Overcast,0,2012-11-30 22:55:00
6:15 PM,62.6,52.2,69,30.29,10.0,Calm,Calm,-,N/A,,Overcast,0,2012-11-30 23:15:00
6:35 PM,62.6,51.8,68,30.30,10.0,Calm,Calm,-,N/A,,Overcast,0,2012-11-30 23:35:00
6:55 PM,60.6,52.5,75,30.30,10.0,Calm,Calm,-,N/A,,Mostly Cloudy,0,2012-11-30 23:55:00
7:15 PM,59.5,51.6,75,30.30,10.0,Calm,Calm,-,N/A,,Mostly Cloudy,0,2012-12-01 00:15:00
7:35 PM,58.5,52.7,81,30.30,10.0,Calm,Calm,-,N/A,,Mostly Cloudy,0,2012-12-01 00:35:00
7:55 PM,57.6,52.7,84,30.31,10.0,Calm,Calm,-,N/A,,Overcast,0,2012-12-01 00:55:00
8:15 PM,56.5,52.5,87,30.31,10.0,Calm,Calm,-,N/A,,Mostly Cloudy,0,2012-12-01 01:15:00
8:35 PM,56.1,52.5,88,30.31,10.0,Calm,Calm,-,N/A,,Scattered Clouds,0,2012-12-01 01:35:00
8:55 PM,54.5,52.2,92,30.31,10.0,Calm,Calm,-,N/A,,Clear,0,2012-12-01 01:55:00
9:15 PM,53.6,52.0,94,30.32,7.0,Calm,Calm,-,N/A,,Clear,0,2012-12-01 02:15:00
9:35 PM,52.7,51.1,94,30.32,3.0,Calm,Calm,-,N/A,,Mostly Cloudy,0,2012-12-01 02:35:00
10:15 PM,53.6,50.7,90,30.32,10.0,Calm,Calm,-,N/A,,Overcast,0,2012-12-01 03:15:00
10:35 PM,53.4,50.4,89,30.32,10.0,Calm,Calm,-,N/A,,Overcast,0,2012-12-01 03:35:00
10:55 PM,52.7,50.4,92,30.33,10.0,Calm,Calm,-,N/A,,Overcast,0,2012-12-01 03:55:00
11:15 PM,53.6,50.5,89,30.33,10.0,Calm,Calm,-,N/A,,Overcast,0,2012-12-01 04:15:00
11:35 PM,53.1,50.7,92,30.33,10.0,Calm,Calm,-,N/A,,Overcast,0,2012-12-01 04:35:00